Flag for U.S.A. Weather past 2 weeks in Bentonville, Arkansas, U.S.A.

48 °F

Low clouds.

Feels Like: 44 °F
Forecast: 37 / 48 °F
Wind: 9 mph from Southwest

Location: Bentonville Weather Observing Station

Current Time: Nov 30, 2015 at 1:24:28 PM

Latest Report: Nov 30, 2015 at 12:55 PM

Visibility: 10 mi

Pressure: 29.96 "Hg

Humidity: 87%

Dew point: 45 °F

Location of BentonvilleLocation

Historic Weather in Bentonville — Graph


Bentonville temperature yesterday

Maximum temperature yesterday: 45 °F (at 2:35 PM)
Minimum temperature yesterday: 39 °F (at 12:35 AM)
Average temperature yesterday: 41 °F

Past Weeks' High & Low Weather Summary

High70 °F (Nov 17, 4:15 AM)88% (Nov 17, 12:15 AM)30.32 "Hg (Nov 17, 12:15 AM)
Low23 °F (Nov 22, 2:35 AM)24% (Nov 19, 3:35 PM)29.47 "Hg (Nov 17, 2:35 PM)
Average48 °F66%30.08 "Hg
* Reported Nov 15 11:15 AM — Nov 30 11:55 AM, Bentonville, Weather by CustomWeather, © 2015

Note: Actual official high and low records may vary slightly from our data, if they occured in-between our weather recording intervals... More about our weather records


Bentonville weather history for previous 24 hours

Time TempWeatherWind HumidityBarometerVisibility
11:55 AM
Mon, Nov 30
48 °FLow clouds.6 mph87%29.98 "Hg5 mi
11:35 AM48 °FLow clouds.8 mph87%29.99 "Hg10 mi
11:15 AM48 °FLow clouds.8 mph87%29.99 "Hg8 mi
10:55 AM48 °FLow clouds.8 mph87%30.00 "Hg2 mi
10:35 AM46 °FLow clouds.7 mph87%30.01 "Hg2 mi
10:15 AM46 °FLow clouds.9 mph87%30.01 "Hg1 mi
9:55 AM46 °FLow clouds.8 mph87%30.01 "Hg2 mi
9:35 AM46 °FLow clouds.6 mph87%30.00 "Hg2 mi
9:15 AM46 °FLow clouds.7 mph87%30.00 "Hg3 mi
8:55 AM46 °FLow clouds.3 mph87%30.00 "Hg10 mi
8:35 AM46 °FLow clouds.No wind87%30.00 "Hg10 mi
8:15 AM46 °FMostly cloudy.No wind87%30.00 "Hg4 mi
7:55 AM46 °FCloudy.No wind87%29.99 "Hg3 mi
7:35 AM46 °FLow clouds.No wind87%29.99 "Hg1 mi
7:15 AM46 °FLow clouds.3 mph87%30.00 "Hg4 mi
6:55 AM46 °FMostly cloudy.No wind87%29.99 "Hg5 mi
6:35 AM46 °FLow clouds.No wind87%29.98 "Hg4 mi
6:15 AM45 °FMostly cloudy.No wind87%29.98 "Hg2 mi
5:55 AM45 °FMostly cloudy.No wind87%29.98 "Hg2 mi
5:35 AM45 °FLow clouds.No wind87%29.98 "Hg3 mi
5:15 AM45 °FLow clouds.No wind87%29.98 "Hg5 mi
4:55 AM45 °FMostly cloudy.No wind87%29.98 "Hg5 mi
4:35 AM45 °FMostly cloudy.No wind87%29.99 "Hg3 mi
4:15 AM45 °FMostly cloudy.No wind87%29.99 "Hg5 mi
3:55 AM45 °FPassing clouds.No wind87%29.99 "Hg5 mi
3:35 AM45 °FMostly cloudy.No wind87%30.00 "Hg6 mi
3:15 AM45 °FMostly cloudy.3 mph81%30.00 "Hg7 mi
2:55 AM45 °FOvercast.3 mph81%30.02 "Hg10 mi
2:35 AM45 °FOvercast.No wind81%30.03 "Hg10 mi
1:55 AM45 °FOvercast.No wind81%30.04 "Hg10 mi
1:15 AM45 °FOvercast.No wind81%30.05 "Hg10 mi
12:55 AM45 °FLow clouds.No wind81%30.05 "Hg10 mi
12:35 AM45 °FOvercast.No wind81%30.06 "Hg10 mi
11:55 PM
Sun, Nov 29
45 °FOvercast.No wind81%30.08 "Hg10 mi
11:35 PM45 °FMostly cloudy.No wind81%30.08 "Hg10 mi
11:15 PM45 °FMostly cloudy.3 mph81%30.08 "Hg10 mi
10:55 PM45 °FLow clouds.No wind81%30.09 "Hg10 mi
10:35 PM45 °FLow clouds.No wind81%30.10 "Hg10 mi
9:35 PM45 °FLow clouds.No wind81%30.11 "Hg7 mi
9:15 PM43 °FLow clouds.No wind87%30.12 "Hg5 mi
8:55 PM43 °FLow clouds.No wind87%30.12 "Hg4 mi
8:35 PM43 °FLow clouds.No wind87%30.12 "Hg7 mi
8:15 PM43 °FMostly cloudy.No wind87%30.13 "Hg10 mi
6:35 PM43 °FLow clouds.No wind87%30.12 "Hg10 mi
6:15 PM43 °FMostly cloudy.3 mph87%30.12 "Hg10 mi
5:35 PM43 °FMostly cloudy.No wind87%30.11 "Hg10 mi
4:55 PM43 °FLow clouds.No wind87%30.15 "Hg10 mi
4:35 PM43 °FMostly cloudy.No wind87%30.13 "Hg10 mi
3:55 PM43 °FMostly cloudy.No wind87%30.11 "Hg8 mi
3:35 PM43 °FLow clouds.6 mph87%30.11 "Hg2 mi
2:55 PM45 °FLow clouds.6 mph81%30.12 "Hg10 mi
2:35 PM45 °FMostly cloudy.6 mph81%30.13 "Hg10 mi
2:15 PM43 °FLow clouds.No wind87%30.10 "Hg10 mi
1:55 PM43 °FMostly cloudy.8 mph87%30.08 "Hg10 mi
1:35 PM43 °FLow clouds.No wind87%30.13 "Hg7 mi
1:15 PM43 °FLow clouds.No wind81%30.16 "Hg9 mi
Weather by CustomWeather, © 2015

See weather overviewHow to use our weather pages